Weather History for Litchfield, IL

Change the Weather History Date:

Thursday, April 25, 2013

  Actual Average (KSPI) Record (KSPI)
Temperature  
Mean Temperature 46 °F 57 °F  
Max Temperature 58 °F 68 °F 90 °F (1986)
Min Temperature 36 °F 46 °F 32 °F (1968)
Degree Days  
Heating Degree Days 18 9  
Month to date heating degree days 325  
Since 1 July heating degree days 5307  
Cooling Degree Days 0 1  
Month to date cooling degree days 14  
Year to date cooling degree days 16  
Moisture  
Dew Point 34 °F    
Average Humidity 62    
Maximum Humidity 90    
Minimum Humidity 39    
Precipitation  
Precipitation 0.00 in 0.13 in 1.59 in (1904)
Month to date precipitation 2.86  
Year to date precipitation 9.12  
Snow  
Snow 0.00 in 0.00 in T in (1910)
Month to date snowfall 0.3  
Since 1 July snowfall 20.9  
Snow Depth -    
Sea Level Pressure  
Sea Level Pressure 30.28 in    
Wind  
Wind Speed 8 mph (WSW)    
Max Wind Speed 16 mph    
Max Gust Speed 23 mph    
Visibility 10 miles    
Events      
T = Trace of Precipitation, MM = Missing Value Source: NWS Daily Summary

Daily Weather History Graph

Daily Weather History Graph

Search for Another Location

Airport:

Trip Planner

Search our weather history database for the weather conditions in past years. The results will help you decide how hot, cold, wet, or windy it might be!

Date:

Astronomy

Apr. 25, 2013 Rise Set
Actual Time 6:07 AM CDT 7:46 PM CDT
Civil Twilight 5:39 AM CDT 8:14 PM CDT
Nautical Twilight 5:04 AM CDT 8:49 PM CDT
Astronomical Twilight 4:28 AM CDT 9:25 PM CDT
Moon 7:59 PM CDT (4/25) 5:50 AM CDT (4/25)
Length of Visible Light 14h 35m
Length of Day
13h 38m
Full, 100% of the Moon is Illuminated
Apr 25
Full
Apr 25
Full
May 2
Last Quarter
May 9
New
May 17
First Quarter

Hourly Weather History & Observations

Time (CDT) Temp. Windchill Dew Point Humidity Pressure Visibility Wind Dir Wind Speed Gust Speed Precip Events Conditions
12:15 AM 37.4 °F 32.8 °F 34.7 °F 90% 30.23 in 10.0 mi SSW 5.8 mph - N/A   Clear
12:35 AM 37.0 °F 31.6 °F 33.8 °F 88% 30.24 in 10.0 mi SSW 6.9 mph - N/A   Clear
12:55 AM 37.0 °F 32.4 °F 33.6 °F 87% 30.23 in 10.0 mi SSW 5.8 mph - N/A   Clear
1:15 AM 36.5 °F 31.8 °F 33.1 °F 87% 30.23 in 10.0 mi SSW 5.8 mph - N/A   Clear
1:35 AM 36.1 °F 31.4 °F 33.1 °F 89% 30.23 in 10.0 mi SSW 5.8 mph - N/A   Clear
1:55 AM 36.9 °F 32.2 °F 32.4 °F 84% 30.23 in 10.0 mi SW 5.8 mph - N/A   Clear
2:15 AM 37.0 °F 32.4 °F 32.2 °F 83% 30.22 in 10.0 mi SW 5.8 mph - N/A   Clear
2:35 AM 37.8 °F 32.5 °F 32.2 °F 80% 30.22 in 10.0 mi SW 6.9 mph - N/A   Clear
2:55 AM 37.4 °F 31.4 °F 32.0 °F 81% 30.22 in 10.0 mi SW 8.1 mph - N/A   Clear
3:15 AM 39.6 °F 34.7 °F 31.6 °F 73% 30.22 in 10.0 mi SW 6.9 mph - N/A   Clear
3:35 AM 38.7 °F 34.3 °F 32.0 °F 77% 30.21 in 10.0 mi SSW 5.8 mph - N/A   Clear
3:55 AM 37.8 °F 31.8 °F 32.2 °F 80% 30.21 in 10.0 mi SW 8.1 mph - N/A   Clear
4:15 AM 37.8 °F 31.8 °F 32.2 °F 80% 30.22 in 10.0 mi SW 8.1 mph - N/A   Clear
4:35 AM 37.6 °F 32.3 °F 32.0 °F 80% 30.21 in 10.0 mi SW 6.9 mph - N/A   Clear
4:55 AM 38.3 °F 32.5 °F 32.0 °F 78% 30.22 in 10.0 mi SW 8.1 mph - N/A   Clear
5:15 AM 38.7 °F 32.4 °F 31.6 °F 76% 30.22 in 10.0 mi SW 9.2 mph - N/A   Clear
5:35 AM 39.4 °F 33.2 °F 31.3 °F 73% 30.22 in 10.0 mi SW 9.2 mph - N/A   Clear
5:55 AM 39.2 °F 32.5 °F 31.5 °F 74% 30.23 in 10.0 mi WSW 10.4 mph - N/A   Clear
6:15 AM 39.4 °F 32.3 °F 31.8 °F 74% 30.23 in 10.0 mi WSW 11.5 mph - N/A   Clear
6:35 AM 39.2 °F 32.0 °F 32.0 °F 75% 30.24 in 10.0 mi WSW 11.5 mph - N/A   Clear
6:55 AM 39.7 °F 33.2 °F 32.2 °F 74% 30.25 in 10.0 mi WSW 10.4 mph - N/A   Clear
7:15 AM 41.2 °F 34.5 °F 32.7 °F 72% 30.25 in 10.0 mi West 11.5 mph - N/A   Clear
7:35 AM 42.3 °F 36.8 °F 33.6 °F 71% 30.26 in 10.0 mi West 9.2 mph - N/A   Clear
7:55 AM 43.5 °F 36.7 °F 33.8 °F 69% 30.27 in 10.0 mi West 13.8 mph - N/A   Clear
8:15 AM 43.9 °F 37.9 °F 35.1 °F 71% 30.28 in 10.0 mi West 11.5 mph - N/A   Clear
8:35 AM 45.1 °F 39.5 °F 36.5 °F 72% 30.29 in 10.0 mi West 11.5 mph - N/A   Clear
8:55 AM 46.2 °F 40.8 °F 35.8 °F 67% 30.30 in 10.0 mi WNW 11.5 mph 17.3 mph N/A   Clear
9:15 AM 46.6 °F - 33.8 °F 61% 30.31 in 10.0 mi NW 10.4 mph - N/A   Clear
9:35 AM 47.3 °F - 33.3 °F 58% 30.32 in 10.0 mi WNW 13.8 mph - N/A   Clear
9:55 AM 48.2 °F - 34.0 °F 58% 30.32 in 10.0 mi NW 12.7 mph - N/A   Clear
10:15 AM 49.1 °F - 32.5 °F 53% 30.33 in 10.0 mi NW 9.2 mph - N/A   Clear
10:55 AM 50.4 °F - 30.6 °F 47% 30.34 in 10.0 mi West 10.4 mph - N/A   Clear
11:55 AM 52.2 °F - 31.5 °F 45% 30.35 in 10.0 mi WNW 13.8 mph 23.0 mph N/A   Clear
12:15 PM 52.0 °F - 31.3 °F 45% 30.35 in 10.0 mi WNW 12.7 mph - N/A   Clear
12:35 PM 53.4 °F - 33.8 °F 47% 30.34 in 10.0 mi WNW 8.1 mph 18.4 mph N/A   Clear
12:55 PM 54.0 °F - 33.4 °F 46% 30.34 in 10.0 mi WNW 10.4 mph 16.1 mph N/A   Clear
1:15 PM 54.1 °F - 33.6 °F 46% 30.34 in 10.0 mi WNW 8.1 mph - N/A   Clear
1:35 PM 54.5 °F - 34.5 °F 47% 30.33 in 10.0 mi West 11.5 mph 16.1 mph N/A   Clear
1:55 PM 55.4 °F - 34.0 °F 44% 30.33 in 10.0 mi NW 11.5 mph 23.0 mph N/A   Clear
2:15 PM 56.1 °F - 35.2 °F 45% 30.33 in 10.0 mi WNW 16.1 mph 23.0 mph N/A   Clear
2:35 PM 56.1 °F - 33.8 °F 43% 30.33 in 10.0 mi West 15.0 mph 23.0 mph N/A   Clear
2:55 PM 56.3 °F - 33.8 °F 43% 30.32 in 10.0 mi West 10.4 mph 17.3 mph N/A   Scattered Clouds
3:15 PM 56.7 °F - 33.6 °F 42% 30.32 in 10.0 mi West 11.5 mph - N/A   Clear
3:35 PM 56.7 °F - 33.4 °F 42% 30.31 in 10.0 mi West 10.4 mph - N/A   Clear
3:55 PM 57.4 °F - 34.0 °F 41% 30.31 in 10.0 mi WNW 10.4 mph 21.9 mph N/A   Clear
4:15 PM 56.8 °F - 32.5 °F 40% 30.31 in 10.0 mi WNW 8.1 mph - N/A   Clear
4:35 PM 57.9 °F - 34.3 °F 41% 30.30 in 10.0 mi West 10.4 mph - N/A   Clear
4:55 PM 57.6 °F - 32.7 °F 39% 30.30 in 10.0 mi SW 4.6 mph - N/A   Clear
5:15 PM 57.9 °F - 33.1 °F 39% 30.30 in 10.0 mi WNW 4.6 mph - N/A   Clear
5:35 PM 57.9 °F - 32.7 °F 39% 30.30 in 10.0 mi WSW 5.8 mph - N/A   Clear
5:55 PM 57.7 °F - 33.8 °F 41% 30.30 in 10.0 mi SSW 6.9 mph - N/A   Clear
6:15 PM 57.4 °F - 32.2 °F 39% 30.30 in 10.0 mi SW 3.5 mph - N/A   Clear
6:35 PM 57.4 °F - 33.4 °F 40% 30.30 in 10.0 mi WNW 6.9 mph - N/A   Clear
6:55 PM 56.8 °F - 35.2 °F 44% 30.30 in 10.0 mi SW 4.6 mph - N/A   Clear
7:15 PM 56.3 °F - 37.2 °F 49% 30.30 in 10.0 mi Calm Calm - N/A   Clear
7:35 PM 55.0 °F - 34.0 °F 45% 30.30 in 10.0 mi Calm Calm - N/A   Clear
7:55 PM 52.9 °F - 34.3 °F 49% 30.30 in 10.0 mi Calm Calm - N/A   Clear
8:15 PM 49.6 °F - 36.7 °F 61% 30.30 in 10.0 mi Calm Calm - N/A   Clear
8:55 PM 47.8 °F - 39.4 °F 72% 30.31 in 10.0 mi ESE 3.5 mph - N/A   Clear
9:15 PM 47.5 °F - 36.9 °F 67% 30.31 in 10.0 mi ESE 4.6 mph - N/A   Clear
9:35 PM 46.0 °F 43.9 °F 38.8 °F 76% 30.31 in 10.0 mi ESE 4.6 mph - N/A   Clear
9:55 PM 46.0 °F 43.9 °F 36.5 °F 69% 30.32 in 10.0 mi East 4.6 mph - N/A   Clear
10:15 PM 46.0 °F 43.1 °F 35.2 °F 66% 30.31 in 10.0 mi ESE 5.8 mph - N/A   Clear
10:35 PM 46.6 °F - 35.4 °F 65% 30.32 in 10.0 mi SE 5.8 mph - N/A   Clear
10:55 PM 46.0 °F 42.5 °F 35.6 °F 67% 30.32 in 10.0 mi SE 6.9 mph - N/A   Clear
11:15 PM 46.0 °F 42.5 °F 35.2 °F 66% 30.31 in 10.0 mi SE 6.9 mph - N/A   Clear
11:35 PM 45.5 °F 41.8 °F 35.6 °F 68% 30.31 in 10.0 mi SE 6.9 mph - N/A   Clear
11:55 PM 46.0 °F 42.5 °F 35.6 °F 67% 30.32 in 10.0 mi SE 6.9 mph - N/A   Clear